Vorticity
5 5 5 5 5 5 6 6 7 7 8 8 8 8 8 7 6 5 4 4 3 3 2 2 1 1 1 1 1 2 3 4 4 4 5 5 5 6 6 6 6 7 7 7 7 7 7 7 7 7 7 6 6 6 5 5 4 4 4 4 4 4 5 5 5 5 7 10 14 17 20 20 19 17 14 12 10 9 9 9 7 5 3 4 5 7 7 6 5 4 3 3 3 3 3 4 5 5 6 5 4 4 3
6 6 5 5 5 5 5 6 6 6 7 8 8 8 9 8 8 7 6 5 4 4 3 3 2 2 1 1 1 1 2 3 3 4 4 4 5 5 6 6 6 7 7 7 7 8 8 7 7 7 7 7 6 6 6 6 5 5 5 5 5 5 5 5 5 5 4 6 9 13 17 19 20 20 18 15 13 11 10 9 9 7 5 4 4 6 9 8 7 5 4 3 3 3 3 3 4 5 5 6 5 5 4
7 7 6 6 6 6 5 6 6 6 6 7 7 8 8 9 9 9 8 7 6 5 4 4 3 3 2 2 1 1 1 2 3 3 4 4 4 4 4 5 5 6 6 7 7 8 8 8 7 7 7 7 6 6 6 6 6 6 6 6 6 5 5 5 5 5 4 5 6 9 12 16 19 21 21 19 16 14 12 11 10 9 7 5 3 3 7 9 9 8 5 4 3 3 3 3 3 4 4 5 5 6 5
8 7 7 7 6 6 6 6 6 6 6 6 7 7 8 8 9 9 9 9 8 7 6 5 5 4 4 3 2 2 1 1 2 3 3 3 3 3 3 3 4 4 5 5 6 6 7 7 7 7 7 7 6 6 6 6 6 6 6 6 6 6 6 6 6 5 5 5 5 6 9 12 16 19 22 21 20 17 14 13 12 11 9 7 3 1 4 7 9 10 8 6 4 3 3 3 3 3 4 4 5 5 6
9 9 8 8 7 7 7 6 6 6 6 6 6 7 7 8 8 9 9 9 9 8 8 7 6 5 5 4 3 2 2 2 2 2 3 3 3 3 3 2 2 2 2 3 4 4 5 6 6 7 7 6 6 6 6 6 6 6 6 7 7 7 7 7 6 6 5 5 5 5 6 9 12 16 19 21 21 20 18 16 14 12 11 9 6 2 0 3 6 9 11 9 6 4 3 3 3 3 3 3 4 5 5
10 10 9 9 8 8 7 7 7 7 7 6 7 7 7 7 8 8 8 9 9 9 8 8 7 6 6 5 4 4 3 2 2 2 3 3 3 3 3 2 2 1 1 2 2 2 3 4 5 5 6 6 6 6 6 6 6 6 6 7 7 7 7 7 7 7 6 6 5 5 5 7 9 12 16 19 21 21 21 18 16 15 13 11 9 6 1 1 2 5 10 11 9 6 4 3 3 3 3 3 3 4 4
11 11 10 10 9 9 8 8 8 7 7 7 7 7 7 7 7 7 8 8 8 9 9 8 8 7 6 6 5 5 4 3 2 2 2 3 4 4 3 3 2 1 1 1 1 2 2 2 3 4 4 5 6 6 6 6 7 7 7 7 7 7 7 8 8 7 7 6 6 5 5 6 7 9 12 16 19 21 22 21 19 17 15 14 12 10 6 2 1 2 5 10 11 9 6 4 3 3 3 3 3 3 4
12 12 11 11 10 10 9 9 8 8 8 8 7 7 7 7 7 7 8 8 8 8 8 8 8 7 7 6 6 5 4 3 3 2 2 3 3 4 4 3 2 2 1 1 1 1 2 2 2 3 3 4 5 6 6 6 7 7 7 7 7 7 7 7 8 8 7 7 6 6 6 6 6 7 9 12 16 19 21 22 21 20 18 16 14 12 10 6 2 1 1 6 10 12 10 7 5 4 3 3 3 3 3
12 12 12 11 11 10 10 10 9 9 9 8 8 8 8 8 8 8 8 8 8 8 8 8 8 8 7 7 6 6 5 4 3 2 2 2 3 3 4 3 3 2 2 1 1 1 2 2 2 2 3 3 4 5 5 6 6 7 7 7 6 6 7 7 7 8 8 7 7 6 6 6 6 6 7 10 13 16 20 22 23 22 20 18 16 14 13 10 6 3 1 2 6 10 13 10 7 5 4 4 3 3 3
11 12 12 12 11 11 11 10 10 10 9 9 9 8 8 8 8 8 8 8 8 8 8 8 8 8 8 7 7 6 5 5 4 3 2 2 2 3 3 3 3 2 2 1 1 1 1 2 2 2 2 3 4 4 5 5 6 6 7 7 7 6 6 7 7 7 7 7 7 6 6 6 6 6 6 8 10 13 17 20 22 23 23 21 18 16 15 13 10 6 3 1 2 5 11 11 10 8 6 5 4 3 3
11 11 11 11 11 11 11 11 10 10 10 9 9 9 9 9 8 8 8 8 8 8 8 8 8 8 8 8 7 7 6 5 4 3 3 2 2 2 3 3 3 2 2 2 1 1 1 1 2 2 2 3 3 4 4 5 5 6 6 7 7 6 6 6 6 7 7 7 7 7 6 6 5 5 5 6 8 10 13 17 21 23 24 23 21 19 17 15 13 10 6 3 1 1 5 10 11 10 8 6 5 4 4
11 11 11 11 11 11 11 11 11 11 10 10 10 9 9 9 9 9 9 9 9 9 9 8 8 8 8 8 8 7 6 6 5 4 3 3 2 2 2 3 3 3 2 2 2 1 1 2 2 2 3 3 3 4 4 5 5 5 6 6 6 6 6 6 6 6 7 7 7 7 6 6 6 5 5 5 6 7 9 13 17 21 24 25 24 22 20 17 15 13 10 7 3 1 1 6 9 10 9 8 6 5 4
10 10 11 11 11 11 11 11 11 11 11 10 10 10 9 9 9 9 9 9 9 9 9 9 9 9 8 8 8 8 7 6 6 5 4 3 3 2 2 2 2 3 2 2 2 2 2 2 2 2 3 3 4 4 4 5 5 5 5 5 6 6 6 6 6 6 6 7 7 7 7 6 6 5 5 5 5 5 6 9 13 17 22 25 27 26 24 21 18 16 13 10 7 3 -0 3 7 10 10 9 7 6 5
10 10 10 10 10 11 11 11 11 11 11 10 10 10 9 9 9 9 9 9 9 9 9 9 9 9 9 8 8 8 8 7 6 6 5 4 3 3 2 2 2 2 3 2 2 2 2 2 2 3 3 3 4 4 5 5 5 5 5 5 5 6 6 6 6 6 6 6 7 7 7 7 6 6 5 5 4 4 4 5 8 11 16 22 26 28 28 25 22 19 16 13 10 6 2 2 6 10 11 10 8 7 6
10 10 10 10 10 10 10 10 10 10 10 10 10 10 10 9 9 9 9 9 8 8 9 9 9 9 9 9 8 8 8 8 7 6 6 5 4 3 3 2 2 2 2 3 3 2 3 3 3 3 3 4 4 5 5 5 5 5 5 5 5 5 5 5 5 5 6 6 6 6 6 6 6 6 6 5 4 4 3 3 4 6 10 15 21 26 30 29 27 24 21 17 13 9 5 2 5 9 12 12 10 9 7
9 9 9 9 10 10 10 10 10 10 10 10 10 10 9 9 9 9 9 8 8 8 8 8 8 8 8 8 8 8 8 8 8 7 6 6 5 4 3 3 3 3 3 3 3 3 3 3 3 3 4 4 4 5 5 5 5 5 5 5 5 5 5 5 5 5 5 5 6 6 6 6 6 6 6 5 5 4 4 3 3 3 4 8 13 20 27 31 31 30 27 23 18 13 8 2 2 6 10 12 12 11 9
9 9 9 9 9 9 9 9 9 9 9 9 9 9 9 9 9 9 8 8 8 8 8 8 8 8 8 8 8 8 8 8 8 8 7 6 6 5 4 4 3 3 3 3 3 3 3 3 4 4 4 4 4 5 5 5 5 5 5 5 4 4 5 5 5 5 5 5 5 5 6 6 6 6 6 5 5 5 4 3 3 2 2 3 6 11 18 25 31 34 33 29 25 20 14 5 2 3 7 9 11 11 11
9 9 9 9 9 9 9 9 9 9 9 8 8 8 8 8 8 8 8 8 8 8 8 8 8 8 8 8 8 8 8 8 8 8 8 7 7 6 5 5 4 4 3 3 3 3 3 4 4 4 4 4 4 5 5 5 5 5 5 5 4 4 4 5 5 5 5 5 5 5 5 5 6 6 5 5 5 5 5 4 4 3 2 2 2 4 8 15 23 30 35 35 32 28 22 13 6 2 4 6 8 10 11
8 8 8 8 8 8 8 8 8 8 8 8 8 8 8 8 8 8 8 8 8 8 8 8 8 8 8 8 8 8 8 8 8 8 8 8 7 7 6 6 5 4 4 4 4 4 4 4 4 4 4 4 4 4 5 5 5 5 5 5 4 4 4 4 4 5 5 5 5 5 5 5 5 5 5 5 5 5 5 5 4 4 3 3 2 2 2 6 12 20 29 34 36 35 31 23 14 6 3 5 6 8 10
8 8 8 8 8 8 8 8 8 8 8 8 8 7 7 7 7 7 7 7 7 7 7 8 8 8 8 8 8 8 8 8 8 8 8 8 8 8 7 7 6 6 5 5 4 4 4 4 4 4 4 4 4 4 5 5 5 5 5 4 4 4 4 4 4 4 4 5 5 5 5 5 5 5 5 5 5 5 5 5 5 5 4 4 3 2 1 2 4 9 16 25 32 37 37 33 25 15 6 4 5 6 8
8 8 8 8 8 8 8 8 8 8 8 8 8 7 7 7 7 7 7 7 7 7 7 7 8 8 8 8 8 8 8 8 9 9 8 8 8 8 8 7 7 7 6 6 5 5 5 4 4 4 4 4 4 4 4 5 5 5 4 4 4 4 4 4 4 4 4 4 5 5 4 4 4 5 5 5 5 5 5 5 5 5 5 4 4 3 2 2 1 2 5 13 22 30 37 38 35 28 16 8 5 5 6
7 7 8 8 8 8 8 8 8 8 8 8 8 8 8 8 8 7 7 7 7 7 7 7 7 8 8 8 8 8 9 9 9 9 9 9 9 9 8 8 8 7 7 6 6 6 5 5 5 5 5 5 4 4 4 4 4 4 4 4 4 4 4 4 4 4 4 4 4 4 4 4 4 4 4 4 4 4 4 4 4 4 4 4 4 4 3 3 2 1 1 4 10 18 28 35 38 37 30 18 10 6 5
7 7 7 7 8 8 8 8 8 8 8 9 9 9 8 8 8 8 8 8 8 8 8 8 8 8 8 8 8 9 9 9 9 9 9 9 9 9 9 8 8 8 8 7 7 6 6 5 5 5 5 5 5 4 4 4 4 4 4 4 4 4 4 4 4 4 4 4 4 4 4 4 4 4 4 4 4 4 4 4 4 4 4 4 4 4 4 4 3 2 1 1 3 6 14 24 33 38 39 31 21 12 8
7 7 7 7 7 7 8 8 8 8 8 9 9 9 9 9 9 9 9 9 8 8 8 8 8 8 8 8 8 9 9 9 9 9 9 9 9 9 9 9 8 8 8 7 7 7 6 6 5 5 5 5 5 5 4 4 4 4 4 4 4 4 4 4 4 4 4 4 4 4 4 4 4 4 4 4 4 4 4 4 4 4 4 4 4 4 4 4 4 3 2 2 1 2 4 10 20 30 38 39 33 23 14
7 7 7 7 7 7 7 7 8 8 8 8 8 9 9 9 9 9 9 9 9 9 9 9 8 8 8 8 8 8 8 9 9 9 9 9 9 9 9 9 8 8 8 8 7 7 6 6 5 5 5 5 5 5 4 4 4 4 4 4 4 4 4 4 4 4 4 4 4 4 4 4 4 4 4 4 4 4 4 4 4 4 4 4 4 4 4 4 4 4 3 3 2 2 1 3 7 15 26 35 38 35 25
7 7 7 7 7 7 7 7 7 7 7 7 8 8 8 8 9 9 9 9 9 9 9 9 9 9 9 8 8 8 8 8 8 9 9 9 9 9 9 9 8 8 8 8 7 7 6 6 6 5 5 5 5 5 5 4 4 4 4 4 4 4 4 4 4 4 4 4 4 4 3 3 3 3 3 3 3 3 4 4 4 4 4 4 4 4 4 4 4 4 4 3 3 2 2 1 2 5 11 22 32 38 37
7 7 7 7 7 6 6 7 7 7 7 7 7 7 7 8 8 8 8 9 9 9 9 9 9 9 9 9 9 8 8 8 8 8 8 8 8 8 8 8 8 8 8 7 7 7 6 6 6 5 5 5 5 5 5 5 5 5 5 5 5 4 4 4 4 4 4 4 3 3 3 3 3 3 3 3 3 3 3 3 3 4 4 4 4 4 4 4 3 3 4 3 3 3 2 2 1 1 2 8 18 29 38
7 7 7 7 7 6 6 6 6 6 6 6 7 7 7 7 7 7 8 8 8 8 9 9 9 9 9 9 9 9 8 8 8 8 8 7 7 7 7 7 7 7 7 7 7 7 6 6 6 6 6 5 5 5 5 5 5 5 5 5 5 5 4 4 4 4 4 4 3 3 3 3 3 2 2 2 2 2 2 2 3 3 3 4 4 4 4 4 4 3 3 3 3 3 3 2 2 2 1 2 6 13 25
7 7 7 7 6 6 6 6 6 6 6 6 6 6 7 6 6 7 7 7 7 8 8 8 8 9 9 9 9 9 9 9 9 8 8 8 7 7 7 7 7 7 7 6 6 6 6 6 6 6 6 5 5 5 5 5 5 5 5 5 5 5 4 4 4 4 4 4 4 3 3 3 3 3 2 2 2 2 2 2 2 2 3 3 4 4 4 4 4 4 3 3 3 3 3 3 2 2 2 1 1 3 8
7 7 7 6 6 6 6 6 6 6 6 6 6 6 6 6 6 6 6 6 6 7 7 7 7 8 8 8 8 8 9 9 9 9 9 9 8 8 8 7 7 7 7 6 6 6 6 6 6 6 6 6 5 5 5 5 5 5 5 5 5 5 4 4 4 4 4 4 4 4 4 3 3 3 3 3 2 2 2 2 2 2 2 3 3 4 4 4 5 4 4 4 3 3 3 3 3 2 2 2 1 1 1
7 7 6 6 6 6 6 6 6 6 6 6 6 6 6 6 6 6 6 6 6 6 6 6 6 6 7 7 7 7 7 8 8 8 8 8 8 8 8 8 8 8 8 7 7 7 6 6 6 6 6 6 6 5 5 5 5 5 5 5 5 5 4 4 4 4 4 4 4 4 4 4 4 3 3 3 3 3 2 2 2 2 2 2 3 3 4 4 5 5 5 4 4 3 3 3 3 3 2 2 1 1 1
7 7 6 6 6 6 6 6 6 6 6 6 6 6 6 6 6 6 6 6 6 6 6 6 6 6 6 6 6 6 6 6 7 7 7 7 7 8 8 8 8 8 8 8 8 8 8 7 7 7 7 7 6 6 6 6 6 5 5 5 5 5 5 4 4 4 4 4 4 4 4 4 4 4 4 4 4 3 3 3 3 2 2 2 3 3 4 4 5 5 5 5 5 4 4 3 3 3 2 2 2 1 1
7 7 7 7 6 6 6 6 6 6 7 7 7 7 6 7 7 7 6 6 6 6 6 6 6 6 6 6 6 6 6 6 6 6 6 6 6 6 6 7 7 7 7 8 8 8 8 8 8 8 8 8 7 7 7 7 7 6 6 6 6 5 5 5 5 5 5 4 4 4 4 4 4 4 4 4 4 4 4 4 3 3 3 3 3 3 4 4 4 5 5 5 5 5 4 4 3 3 3 2 2 2 2
7 7 7 7 7 6 6 7 7 7 7 7 7 7 7 7 7 7 7 7 7 7 7 7 6 6 6 6 6 6 6 6 6 6 6 6 6 6 6 6 6 6 6 7 7 7 7 8 8 8 8 8 8 8 8 8 8 8 7 7 7 7 6 6 6 6 5 5 5 5 5 5 5 5 5 4 4 4 4 4 4 4 4 3 3 3 4 4 4 5 5 5 5 5 5 4 4 4 3 3 2 2 2
7 7 7 7 7 7 7 7 7 7 7 7 8 8 8 8 8 8 8 8 8 8 8 7 7 7 7 7 7 7 7 7 7 7 7 7 7 6 6 6 6 6 6 6 6 6 7 7 7 7 7 8 8 8 8 8 8 9 9 8 8 8 8 7 7 7 7 6 6 6 6 5 5 5 5 5 5 5 5 5 5 4 4 4 4 4 4 4 5 5 5 6 6 6 5 5 5 4 4 3 3 2 2
7 7 7 7 7 7 8 8 8 8 8 8 8 8 8 8 8 8 8 8 8 8 8 8 8 8 8 8 8 8 8 8 8 8 8 8 8 8 8 8 7 7 7 7 7 7 7 7 7 7 7 7 8 8 8 8 9 9 9 9 9 9 9 9 8 8 8 8 7 7 7 6 6 6 5 5 5 5 5 5 5 5 5 4 4 4 4 5 5 5 6 6 6 6 6 5 5 5 4 4 3 3 2
7 7 7 7 8 8 8 8 8 8 8 8 8 8 8 8 8 8 8 8 8 8 8 8 8 8 8 8 9 9 9 9 9 9 9 9 9 9 9 9 9 9 9 9 9 8 8 8 8 8 8 8 8 8 8 8 9 9 9 9 9 9 9 9 9 9 9 9 8 8 8 7 7 7 6 6 6 6 6 6 5 5 5 5 5 5 5 5 5 6 6 6 6 6 6 6 6 5 5 4 4 3 3
7 7 7 7 8 8 8 8 8 8 8 8 8 8 8 8 8 8 8 8 8 8 8 8 8 8 8 9 9 9 9 9 9 10 10 10 10 10 10 11 11 11 11 10 10 10 10 10 9 9 9 9 9 9 9 9 9 9 9 10 10 10 10 10 10 10 10 9 9 9 9 8 8 8 7 7 7 6 6 6 6 6 5 5 5 5 5 6 6 6 7 7 7 7 6 6 6 5 5 5 4 4 3
7 7 7 7 8 8 8 7 7 8 8 8 8 8 8 7 7 7 8 8 8 8 8 8 8 8 8 8 9 9 9 9 9 10 10 10 10 11 11 11 11 11 11 11 11 11 11 11 11 10 10 10 10 10 10 10 10 10 10 10 10 10 11 11 11 11 11 10 10 10 10 9 9 8 8 8 7 7 7 7 6 6 6 6 6 6 6 6 6 7 7 7 7 7 7 6 6 6 5 5 5 4 4
7 7 7 7 7 7 7 7 7 7 7 7 7 7 7 7 7 7 7 7 7 7 7 7 7 8 8 8 8 8 9 9 9 9 10 10 10 10 11 11 11 11 12 12 12 12 12 12 12 11 11 11 11 11 10 10 10 10 10 11 11 11 11 11 11 11 11 11 11 11 10 10 10 9 9 8 8 8 7 7 7 6 6 6 6 6 6 7 7 7 7 7 7 7 7 7 6 6 6 6 5 5 4
7 7 7 7 7 7 7 7 7 7 7 7 7 7 7 7 7 7 7 7 7 7 7 7 7 7 7 7 7 8 8 8 8 9 9 9 10 10 10 11 11 11 11 12 12 12 12 12 12 12 12 11 11 11 11 11 11 11 11 11 11 12 12 12 12 12 12 12 12 11 11 11 10 10 9 9 9 8 8 7 7 7 7 7 7 7 7 7 7 7 7 7 7 7 7 7 7 7 6 6 6 5 5
6 7 7 7 7 7 7 7 7 7 7 7 7 6 6 7 7 7 6 6 6 6 6 6 7 7 7 7 7 7 7 7 8 8 8 9 9 9 10 10 10 10 11 11 11 11 12 12 12 12 11 11 11 11 11 11 11 11 11 11 12 12 12 12 13 13 13 12 12 12 11 11 11 10 10 9 9 8 8 8 7 7 7 7 7 7 7 7 7 7 7 7 7 7 8 8 8 7 7 7 6 6 6
6 6 6 6 6 6 7 6 6 6 6 6 6 6 6 6 6 6 6 6 6 6 6 6 6 6 6 6 6 7 7 7 7 7 8 8 8 8 8 9 9 9 10 10 11 11 11 11 11 11 11 11 11 11 11 11 11 11 11 11 11 11 12 12 12 12 13 12 12 12 11 11 11 10 10 9 9 9 8 8 8 8 7 7 7 7 7 6 6 6 6 7 7 7 8 8 8 8 8 8 7 7 6
6 6 6 6 6 6 6 6 6 6 6 6 6 6 6 6 6 6 6 6 6 6 7 6 6 6 6 6 6 6 6 7 7 7 7 7 7 8 8 8 8 8 9 9 10 10 10 10 10 11 11 11 10 10 10 10 10 10 10 10 10 11 11 11 12 12 12 12 12 11 11 11 10 10 10 10 9 9 8 8 8 8 7 7 7 7 6 6 6 6 6 7 7 8 8 9 9 9 9 8 7 7 6
6 6 6 6 6 6 6 6 6 6 6 6 6 6 6 6 6 6 6 6 6 6 6 6 6 6 6 6 6 6 6 6 6 6 7 7 7 7 8 8 8 8 8 8 9 9 9 10 10 10 10 10 10 10 10 10 9 9 9 9 9 10 10 10 10 11 11 11 11 11 10 10 10 9 9 9 9 9 8 8 8 7 7 7 7 6 6 6 6 6 7 7 8 8 9 9 9 9 9 8 7 6 5
6 6 6 6 6 6 6 6 6 6 6 6 6 6 6 6 6 6 6 6 6 6 6 6 6 6 6 6 6 6 6 6 6 6 6 7 7 7 7 7 7 7 7 8 8 8 8 9 9 9 10 10 10 10 9 9 9 9 9 9 8 8 9 9 9 9 9 9 9 9 9 9 9 8 8 8 8 8 8 7 7 7 7 6 6 6 6 6 6 7 8 8 9 9 10 9 9 8 8 7 6 5 4
6 6 6 6 6 6 6 6 6 6 6 6 6 6 6 6 6 6 6 6 6 6 6 6 6 6 6 6 6 6 6 6 6 6 6 6 6 7 7 7 7 7 7 7 8 8 8 8 8 9 9 9 9 9 9 9 9 9 8 8 8 8 8 8 8 8 8 8 8 8 8 8 7 7 7 7 7 7 7 7 7 7 7 6 6 6 6 7 8 9 10 10 11 11 11 10 9 8 6 5 5 4 4
6 6 6 6 6 6 6 6 6 6 6 6 6 6 6 6 6 6 6 6 6 6 6 6 6 6 7 7 7 6 6 6 6 6 6 6 6 6 6 7 7 7 7 7 8 8 8 8 8 8 8 8 8 8 9 9 9 8 8 8 8 7 7 7 7 7 7 7 7 7 7 7 7 6 6 6 7 7 7 7 7 7 7 7 7 7 8 9 10 11 12 12 12 11 11 9 8 6 5 4 4 4 4
6 6 6 6 6 6 6 6 6 6 6 6 6 6 6 6 6 6 6 6 6 6 6 6 6 6 7 7 7 7 7 7 6 6 6 6 7 7 6 6 7 7 7 7 7 7 7 7 8 8 8 8 8 8 8 8 8 8 8 8 8 7 7 7 7 7 6 6 6 6 6 6 6 6 7 7 7 7 7 7 7 7 7 8 8 9 10 11 12 12 12 12 11 10 9 7 6 5 4 4 4 4 5
6 6 6 6 6 6 6 6 6 6 6 6 6 6 6 6 6 6 6 6 6 6 6 6 6 6 6 7 7 7 7 7 7 7 7 7 8 8 9 7 7 7 7 6 6 6 7 7 8 8 8 8 8 8 8 8 8 8 8 8 8 8 8 7 7 7 7 7 7 7 7 7 7 7 7 7 7 7 7 8 8 8 9 9 10 11 12 13 13 12 11 10 9 7 6 5 5 4 4 4 5 5 5
7 7 6 6 6 6 6 6 6 6 6 6 6 6 6 6 6 6 6 6 6 5 5 6 6 6 5 6 6 7 6 7 7 7 8 8 8 7 8 9 8 8 8 7 6 6 7 8 8 8 8 8 8 8 8 8 8 8 8 8 8 8 8 8 8 8 7 7 7 7 7 7 8 8 8 8 8 8 8 9 9 10 11 12 12 13 13 12 11 10 8 7 6 5 5 5 4 5 5 5 5 5 5
7 7 6 6 6 6 6 6 6 6 6 6 6 6 6 5 6 6 6 6 6 5 5 5 6 6 5 5 6 6 6 6 6 6 7 7 7 7 7 8 10 10 10 9 8 7 6 7 7 7 8 8 8 8 8 9 9 9 9 9 9 9 9 9 8 8 8 8 8 8 8 8 8 9 9 9 9 9 10 11 11 12 13 13 13 12 11 9 8 7 6 5 5 5 5 5 5 5 5 5 5 5 6
6 6 6 6 6 6 6 6 6 6 6 5 5 5 5 5 5 6 6 6 6 6 6 6 6 6 6 6 6 6 6 6 6 6 6 6 7 7 7 8 9 10 10 11 11 10 6 6 7 8 7 8 9 9 9 9 9 9 9 9 9 9 9 9 9 9 9 9 9 9 9 9 9 10 10 11 11 12 12 13 13 13 13 12 11 9 8 6 5 5 4 4 5 5 5 5 5 5 5 5 5 6 7
7 6 6 6 6 6 6 6 6 6 6 5 5 5 6 5 6 6 6 6 6 6 6 6 6 6 6 7 6 6 6 6 5 5 6 6 6 7 8 7 7 7 8 9 11 12 11 9 9 10 9 8 9 9 9 9 9 9 9 9 10 10 10 10 10 10 10 10 10 10 10 10 10 11 12 12 13 13 14 13 12 12 11 9 8 6 5 4 4 4 4 5 5 5 5 5 5 5 5 5 6 7 8
7 7 6 6 6 6 6 6 6 6 6 6 6 5 6 6 6 6 6 6 6 6 6 6 6 6 7 7 7 7 7 6 6 6 6 6 6 6 6 6 7 7 8 10 10 11 12 9 9 9 10 9 9 9 9 9 10 10 10 10 10 10 10 10 10 10 11 11 11 11 11 11 12 12 13 13 13 13 13 12 10 9 7 6 5 4 4 4 4 4 5 5 5 5 5 5 5 5 6 6 7 8 10
7 7 7 7 7 7 6 6 6 6 6 6 6 6 6 6 6 6 6 6 7 7 7 7 7 7 7 7 8 8 7 7 7 6 6 6 6 6 6 7 7 7 7 9 9 9 9 9 9 10 10 9 9 10 10 10 10 10 11 11 11 11 11 11 11 11 11 12 12 12 12 13 13 13 12 12 12 11 10 9 7 6 5 4 4 4 4 4 5 5 5 5 6 6 6 5 6 6 7 8 9 10 11
7 7 7 7 7 7 7 7 7 6 6 6 6 6 6 6 6 6 6 7 7 7 7 7 7 7 7 7 7 8 8 8 7 7 6 6 6 6 6 6 7 7 7 6 6 7 8 9 10 11 11 9 8 9 10 10 10 10 11 11 11 11 11 12 12 12 12 12 13 13 13 13 13 12 11 10 9 8 7 6 5 5 4 4 4 4 5 5 5 5 6 6 6 6 6 6 6 7 8 9 10 11 12
7 7 7 7 7 7 7 7 7 7 7 7 7 7 7 7 7 7 7 7 7 7 7 7 7 8 8 7 7 7 8 8 8 7 7 6 6 6 6 6 7 7 8 8 8 7 6 9 11 11 9 11 10 9 8 9 10 10 10 11 11 12 12 12 12 12 12 13 13 13 13 12 11 10 9 8 7 6 5 5 5 4 4 4 5 5 5 6 6 6 6 6 6 6 6 6 7 8 9 10 11 12 13
7 7 7 7 7 7 7 7 7 7 7 7 7 7 7 7 7 7 7 7 7 7 7 7 7 7 7 7 7 7 8 8 8 8 7 7 7 6 6 6 7 7 8 8 9 9 8 9 10 10 10 11 11 11 9 9 9 10 10 10 11 11 12 12 12 12 12 12 12 12 11 10 9 8 7 6 5 5 5 5 5 5 5 5 5 6 6 6 6 6 6 6 6 6 6 7 8 9 10 11 12 13 14
7 7 7 7 7 7 7 7 7 7 7 7 7 7 7 7 7 7 7 7 7 7 7 7 7 7 7 7 7 7 7 7 7 7 7 7 7 7 7 7 7 7 7 8 8 9 10 10 9 9 10 10 10 11 11 10 9 9 10 10 11 11 12 12 12 12 11 11 10 9 9 8 7 6 5 5 5 5 5 5 5 6 6 6 6 6 7 7 7 7 7 7 7 7 7 8 9 10 11 12 12 13 15
7 7 7 7 7 7 7 7 7 7 7 7 7 7 7 7 7 7 7 7 6 6 6 6 6 6 6 6 7 7 7 7 7 7 7 7 8 8 7 7 7 8 8 8 9 9 10 11 11 11 10 10 10 10 11 11 11 11 10 10 10 11 11 11 11 10 9 9 8 7 7 6 6 5 5 5 5 5 5 6 6 6 6 7 7 7 7 7 7 7 7 7 7 7 8 9 9 10 11 12 13 14 16
Height
5877 5877 5877 5878 5878 5878 5878 5878 5879 5879 5879 5880 5880 5880 5881 5881 5881 5881 5881 5881 5882 5882 5882 5882 5882 5883 5883 5883 5883 5884 5884 5884 5884 5884 5884 5885 5885 5885 5885 5885 5885 5885 5885 5885 5885 5885 5885 5885 5885 5885 5885 5886 5886 5886 5886 5885 5885 5885 5885 5885 5885 5885 5885 5885 5885 5885 5885 5885 5885 5885 5884 5885 5885 5885 5886 5886 5886 5887 5887 5888 5889 5889 5890 5891 5891 5892 5892 5893 5893 5894 5895 5895 5896 5896 5897 5898 5899 5900 5901 5901 5902 5902 5903
5876 5876 5876 5876 5876 5876 5877 5877 5877 5877 5878 5878 5878 5879 5879 5879 5880 5880 5880 5880 5881 5881 5881 5881 5881 5882 5882 5882 5882 5883 5883 5883 5883 5883 5883 5884 5884 5884 5884 5884 5884 5884 5884 5884 5884 5884 5884 5884 5884 5884 5885 5885 5885 5885 5885 5885 5885 5884 5884 5884 5884 5884 5883 5884 5884 5884 5884 5884 5884 5883 5883 5883 5883 5884 5884 5884 5885 5885 5886 5886 5887 5888 5888 5889 5890 5891 5891 5891 5892 5892 5893 5894 5894 5895 5896 5896 5897 5898 5899 5900 5900 5901 5901
5875 5875 5875 5875 5875 5875 5876 5876 5876 5876 5876 5877 5877 5877 5877 5878 5878 5878 5879 5879 5879 5880 5880 5880 5881 5881 5881 5881 5882 5882 5882 5882 5882 5883 5883 5883 5883 5883 5883 5883 5883 5883 5883 5883 5883 5883 5883 5883 5883 5883 5884 5884 5884 5884 5884 5884 5884 5884 5883 5883 5883 5883 5883 5883 5883 5883 5883 5883 5883 5882 5882 5882 5882 5882 5882 5883 5883 5883 5884 5885 5885 5886 5886 5887 5888 5890 5890 5890 5890 5891 5891 5892 5893 5893 5894 5895 5896 5896 5897 5898 5899 5900 5900
5873 5874 5874 5874 5874 5874 5874 5874 5875 5875 5875 5875 5876 5876 5876 5876 5876 5877 5877 5878 5878 5878 5879 5879 5879 5880 5880 5880 5881 5881 5881 5881 5881 5882 5882 5882 5882 5882 5882 5882 5882 5882 5882 5882 5882 5882 5882 5882 5882 5882 5882 5882 5883 5883 5883 5883 5883 5883 5883 5882 5882 5882 5882 5882 5882 5882 5882 5882 5882 5881 5881 5881 5881 5881 5881 5881 5881 5882 5882 5883 5883 5884 5885 5885 5886 5888 5889 5889 5889 5889 5890 5890 5891 5891 5892 5893 5894 5895 5896 5896 5897 5898 5899
5872 5872 5872 5872 5873 5873 5873 5873 5873 5873 5874 5874 5874 5874 5875 5875 5875 5876 5876 5876 5876 5877 5877 5877 5878 5878 5879 5879 5879 5880 5880 5880 5880 5881 5881 5881 5881 5881 5881 5881 5882 5882 5881 5881 5881 5881 5881 5881 5881 5881 5881 5881 5881 5882 5882 5882 5882 5882 5882 5881 5881 5881 5881 5881 5881 5881 5881 5881 5881 5881 5881 5880 5880 5880 5880 5880 5880 5881 5881 5881 5881 5882 5883 5884 5884 5885 5887 5886 5887 5888 5888 5889 5889 5890 5891 5891 5892 5893 5894 5895 5896 5896 5897
5871 5871 5871 5871 5871 5871 5871 5872 5872 5872 5872 5872 5873 5873 5873 5873 5874 5874 5874 5875 5875 5875 5876 5876 5876 5877 5877 5878 5878 5878 5879 5879 5879 5879 5880 5880 5880 5880 5880 5881 5881 5881 5881 5881 5881 5881 5880 5880 5880 5880 5881 5881 5881 5881 5881 5881 5881 5881 5881 5881 5881 5880 5880 5880 5880 5880 5880 5880 5880 5880 5880 5879 5879 5879 5879 5879 5879 5879 5879 5880 5880 5881 5881 5882 5882 5883 5884 5885 5885 5886 5887 5887 5887 5888 5889 5890 5891 5891 5892 5893 5894 5895 5895
5870 5870 5870 5870 5870 5870 5870 5871 5871 5871 5871 5871 5871 5871 5872 5872 5872 5873 5873 5873 5874 5874 5874 5875 5875 5875 5876 5876 5876 5877 5877 5877 5878 5878 5878 5878 5879 5879 5879 5879 5879 5880 5880 5880 5880 5879 5879 5879 5879 5879 5879 5879 5879 5879 5880 5880 5880 5880 5880 5880 5880 5880 5879 5879 5879 5879 5879 5879 5879 5879 5879 5878 5878 5878 5878 5878 5878 5878 5878 5878 5878 5879 5880 5880 5881 5881 5882 5883 5883 5884 5886 5886 5886 5887 5887 5888 5889 5890 5891 5891 5892 5893 5894
5868 5868 5868 5869 5869 5869 5869 5869 5869 5870 5870 5870 5870 5870 5871 5871 5871 5871 5872 5872 5872 5873 5873 5873 5874 5874 5874 5875 5875 5875 5876 5876 5876 5876 5877 5877 5877 5877 5877 5878 5878 5878 5878 5878 5878 5878 5878 5878 5878 5878 5878 5878 5878 5878 5878 5878 5878 5878 5878 5878 5878 5878 5878 5878 5878 5878 5878 5878 5878 5878 5878 5877 5877 5877 5877 5877 5876 5876 5876 5876 5877 5877 5878 5878 5879 5879 5880 5881 5881 5882 5883 5885 5885 5885 5886 5886 5887 5888 5889 5890 5891 5891 5892
5867 5867 5867 5867 5867 5867 5868 5868 5868 5868 5868 5869 5869 5869 5869 5870 5870 5870 5870 5871 5871 5871 5871 5872 5872 5873 5873 5873 5874 5874 5874 5875 5875 5875 5876 5876 5876 5876 5876 5876 5876 5877 5877 5877 5877 5877 5877 5877 5877 5877 5877 5877 5877 5877 5877 5877 5877 5877 5877 5877 5877 5877 5877 5877 5877 5877 5877 5877 5877 5877 5877 5877 5876 5876 5876 5876 5876 5876 5875 5875 5876 5876 5876 5876 5877 5877 5878 5879 5879 5880 5881 5882 5884 5885 5884 5885 5885 5886 5887 5888 5889 5890 5890
5866 5866 5866 5866 5866 5866 5866 5866 5866 5867 5867 5867 5867 5868 5868 5868 5868 5869 5869 5869 5870 5870 5870 5871 5871 5871 5871 5872 5872 5873 5873 5873 5874 5874 5874 5875 5875 5875 5875 5875 5875 5875 5876 5876 5876 5876 5876 5876 5876 5876 5876 5876 5876 5876 5876 5876 5876 5876 5876 5876 5876 5876 5876 5876 5876 5876 5876 5876 5876 5876 5876 5876 5876 5876 5875 5875 5875 5875 5874 5874 5874 5874 5874 5874 5875 5876 5876 5877 5877 5878 5880 5880 5881 5883 5883 5883 5883 5884 5885 5886 5887 5888 5889
5865 5865 5865 5865 5865 5865 5865 5865 5865 5866 5866 5866 5866 5866 5867 5867 5867 5867 5868 5868 5868 5868 5869 5869 5870 5870 5870 5871 5871 5871 5872 5872 5872 5873 5873 5873 5873 5874 5874 5874 5874 5874 5874 5875 5875 5875 5875 5875 5875 5875 5875 5875 5875 5875 5875 5875 5875 5875 5875 5875 5875 5875 5875 5875 5875 5875 5875 5875 5875 5875 5875 5875 5875 5875 5874 5874 5874 5874 5873 5873 5873 5873 5873 5873 5873 5874 5874 5875 5876 5876 5877 5878 5879 5880 5881 5881 5881 5883 5883 5884 5885 5886 5887
5864 5864 5864 5864 5864 5864 5864 5864 5864 5864 5865 5865 5865 5865 5865 5866 5866 5866 5866 5867 5867 5867 5868 5868 5868 5869 5869 5869 5870 5870 5871 5871 5871 5871 5872 5872 5872 5872 5872 5872 5872 5873 5873 5873 5873 5873 5874 5874 5874 5874 5874 5874 5874 5874 5874 5874 5874 5873 5873 5873 5873 5873 5873 5874 5874 5874 5874 5874 5874 5874 5874 5874 5874 5874 5873 5873 5873 5873 5872 5872 5872 5872 5872 5871 5872 5872 5872 5873 5873 5874 5875 5876 5877 5878 5880 5879 5880 5881 5882 5883 5884 5884 5885
5862 5862 5862 5862 5862 5863 5863 5863 5863 5863 5863 5864 5864 5864 5864 5864 5865 5865 5865 5866 5866 5866 5866 5867 5867 5867 5868 5868 5868 5869 5869 5870 5870 5870 5871 5871 5871 5871 5871 5871 5871 5871 5871 5872 5872 5872 5872 5872 5872 5872 5872 5872 5872 5872 5872 5872 5872 5872 5872 5872 5872 5872 5872 5872 5872 5872 5873 5873 5873 5873 5873 5873 5873 5873 5872 5872 5872 5872 5872 5871 5871 5871 5871 5871 5871 5871 5871 5871 5871 5872 5873 5874 5875 5876 5877 5877 5878 5879 5880 5881 5882 5883 5883
5861 5861 5861 5861 5861 5861 5861 5862 5862 5862 5862 5862 5863 5863 5863 5863 5863 5864 5864 5864 5865 5865 5865 5866 5866 5866 5866 5867 5867 5867 5868 5868 5868 5869 5869 5869 5870 5870 5870 5870 5870 5870 5870 5871 5871 5871 5871 5871 5871 5871 5871 5871 5871 5871 5871 5871 5871 5871 5871 5871 5871 5871 5871 5871 5871 5871 5871 5871 5871 5871 5871 5871 5871 5871 5871 5871 5871 5871 5871 5871 5870 5870 5870 5869 5869 5869 5869 5869 5870 5870 5871 5872 5873 5874 5875 5876 5876 5877 5878 5879 5880 5881 5882
5860 5860 5860 5860 5860 5860 5861 5861 5861 5861 5861 5861 5861 5862 5862 5862 5862 5862 5863 5863 5863 5864 5864 5864 5865 5865 5865 5866 5866 5866 5866 5867 5867 5867 5868 5868 5868 5868 5869 5869 5869 5869 5869 5869 5869 5870 5870 5870 5870 5870 5870 5870 5871 5871 5871 5871 5871 5871 5870 5870 5870 5870 5870 5870 5870 5870 5870 5870 5870 5870 5870 5870 5870 5870 5870 5870 5870 5870 5870 5870 5869 5869 5869 5869 5868 5868 5868 5868 5868 5869 5869 5870 5871 5871 5873 5875 5876 5875 5876 5877 5878 5879 5880
5860 5859 5859 5859 5859 5859 5859 5859 5860 5860 5860 5860 5860 5861 5861 5861 5861 5861 5861 5862 5862 5862 5863 5863 5863 5864 5864 5864 5865 5865 5865 5866 5866 5866 5866 5867 5867 5867 5867 5867 5867 5867 5867 5867 5868 5868 5869 5869 5869 5869 5869 5869 5869 5869 5869 5869 5869 5869 5869 5869 5869 5869 5869 5869 5868 5868 5869 5869 5869 5869 5869 5869 5869 5869 5869 5869 5869 5869 5869 5869 5869 5868 5868 5868 5867 5867 5867 5867 5867 5867 5868 5868 5869 5870 5871 5873 5874 5875 5875 5876 5876 5877 5878
5859 5858 5858 5858 5858 5858 5858 5858 5858 5859 5859 5859 5859 5859 5860 5860 5860 5860 5861 5861 5861 5861 5861 5862 5862 5862 5863 5863 5863 5864 5864 5864 5865 5865 5865 5865 5866 5866 5866 5866 5866 5866 5866 5866 5866 5867 5867 5867 5868 5868 5868 5868 5868 5868 5868 5868 5868 5868 5868 5868 5868 5868 5868 5867 5867 5867 5867 5867 5868 5868 5868 5868 5868 5868 5868 5868 5868 5868 5868 5868 5868 5867 5867 5867 5867 5866 5866 5866 5866 5866 5866 5866 5867 5868 5869 5870 5872 5873 5873 5874 5875 5876 5876
5858 5858 5857 5857 5857 5857 5857 5857 5857 5857 5857 5858 5858 5858 5858 5859 5859 5859 5859 5860 5860 5860 5860 5861 5861 5861 5861 5862 5862 5862 5862 5863 5863 5863 5864 5864 5864 5864 5865 5865 5865 5865 5865 5865 5865 5865 5866 5866 5866 5866 5866 5866 5867 5867 5867 5867 5867 5867 5867 5867 5866 5866 5866 5866 5866 5866 5866 5866 5866 5866 5866 5866 5866 5866 5866 5866 5867 5867 5867 5867 5867 5867 5866 5866 5866 5866 5865 5865 5865 5865 5865 5865 5866 5866 5867 5867 5870 5871 5871 5872 5873 5874 5875
5857 5857 5856 5856 5856 5856 5856 5856 5856 5856 5856 5856 5857 5857 5857 5857 5858 5858 5858 5858 5859 5859 5859 5859 5860 5860 5860 5861 5861 5861 5861 5861 5861 5862 5862 5862 5863 5863 5863 5863 5863 5863 5863 5863 5863 5863 5864 5864 5865 5865 5865 5865 5865 5865 5865 5865 5865 5865 5865 5865 5865 5865 5865 5865 5865 5865 5865 5865 5865 5865 5865 5865 5865 5865 5865 5865 5866 5866 5866 5866 5866 5866 5866 5865 5865 5865 5865 5864 5864 5864 5864 5864 5864 5865 5865 5866 5867 5869 5870 5870 5871 5872 5873
5856 5856 5856 5856 5856 5856 5855 5855 5855 5856 5856 5856 5856 5856 5856 5856 5856 5857 5857 5857 5857 5858 5858 5858 5858 5859 5859 5859 5859 5860 5860 5860 5860 5860 5861 5861 5861 5861 5861 5862 5862 5862 5862 5862 5862 5862 5862 5862 5863 5863 5863 5864 5864 5864 5864 5864 5864 5864 5864 5864 5864 5864 5864 5864 5864 5864 5864 5864 5864 5864 5864 5864 5864 5864 5864 5864 5864 5864 5864 5864 5865 5865 5865 5864 5864 5864 5864 5864 5863 5863 5863 5863 5863 5863 5864 5864 5865 5866 5868 5869 5869 5869 5871
5855 5855 5855 5855 5855 5855 5855 5855 5855 5855 5855 5855 5855 5855 5855 5855 5855 5856 5856 5856 5856 5856 5856 5857 5857 5857 5857 5858 5858 5858 5858 5858 5859 5859 5859 5860 5860 5860 5860 5860 5861 5861 5861 5861 5861 5861 5861 5861 5861 5861 5861 5862 5862 5862 5862 5862 5862 5862 5862 5862 5862 5862 5862 5862 5862 5862 5862 5862 5862 5862 5862 5862 5862 5862 5863 5863 5863 5863 5863 5863 5863 5863 5863 5863 5863 5863 5863 5863 5863 5863 5862 5862 5862 5862 5862 5863 5863 5864 5865 5867 5867 5867 5869
5854 5854 5854 5854 5854 5854 5854 5854 5854 5854 5854 5854 5854 5854 5854 5854 5854 5854 5855 5855 5855 5855 5855 5856 5856 5856 5856 5856 5856 5857 5857 5857 5857 5857 5858 5858 5858 5858 5859 5859 5859 5859 5859 5859 5859 5859 5859 5859 5859 5859 5860 5860 5860 5861 5861 5861 5861 5861 5861 5861 5861 5861 5861 5861 5861 5861 5861 5861 5861 5861 5861 5861 5861 5861 5861 5861 5861 5861 5861 5861 5862 5862 5862 5862 5862 5862 5862 5862 5862 5862 5862 5861 5861 5861 5861 5861 5862 5862 5863 5865 5866 5867 5867
5853 5853 5853 5853 5853 5853 5853 5853 5853 5853 5853 5853 5853 5853 5853 5853 5853 5853 5853 5853 5854 5854 5854 5854 5854 5855 5855 5855 5855 5855 5856 5856 5856 5856 5856 5856 5857 5857 5857 5857 5857 5857 5857 5857 5857 5857 5857 5857 5857 5858 5858 5858 5858 5859 5859 5859 5859 5859 5859 5859 5859 5859 5860 5860 5860 5860 5860 5860 5860 5860 5860 5860 5860 5860 5860 5860 5860 5860 5860 5860 5860 5861 5861 5861 5861 5861 5861 5861 5861 5861 5861 5861 5861 5861 5861 5861 5861 5861 5861 5863 5864 5866 5866
5852 5852 5852 5852 5852 5852 5852 5852 5852 5852 5852 5852 5852 5852 5852 5852 5852 5852 5852 5852 5852 5852 5853 5853 5853 5853 5853 5854 5854 5854 5854 5854 5854 5855 5855 5855 5855 5856 5856 5856 5856 5856 5856 5856 5856 5856 5856 5856 5856 5856 5856 5856 5856 5857 5857 5857 5857 5857 5858 5858 5858 5858 5858 5858 5858 5858 5858 5858 5858 5858 5858 5858 5858 5858 5858 5858 5858 5858 5859 5859 5859 5859 5859 5860 5860 5860 5860 5860 5860 5860 5860 5860 5860 5860 5860 5860 5860 5860 5860 5861 5862 5863 5865
5851 5851 5851 5851 5851 5851 5851 5851 5851 5851 5851 5851 5851 5851 5851 5851 5851 5851 5851 5851 5851 5851 5851 5851 5852 5852 5852 5852 5852 5852 5853 5853 5853 5853 5853 5854 5854 5854 5854 5854 5854 5854 5854 5854 5854 5854 5854 5854 5854 5854 5854 5854 5854 5855 5855 5855 5856 5856 5856 5856 5856 5856 5856 5856 5856 5856 5857 5857 5857 5857 5857 5857 5857 5857 5857 5857 5857 5857 5857 5857 5857 5857 5857 5858 5858 5858 5859 5859 5859 5859 5859 5859 5859 5859 5859 5859 5859 5859 5859 5859 5860 5861 5863
5850 5850 5850 5850 5850 5850 5850 5850 5850 5850 5850 5850 5849 5849 5849 5849 5849 5850 5850 5850 5850 5850 5850 5850 5850 5851 5851 5851 5851 5851 5851 5851 5851 5852 5852 5852 5852 5852 5852 5852 5852 5852 5852 5852 5852 5852 5852 5852 5852 5852 5852 5852 5852 5853 5853 5853 5854 5854 5854 5855 5855 5855 5855 5855 5855 5855 5855 5855 5855 5855 5855 5855 5855 5855 5855 5855 5855 5855 5856 5856 5856 5856 5856 5856 5856 5857 5857 5857 5857 5857 5857 5857 5857 5857 5857 5857 5858 5858 5858 5858 5858 5859 5860
5849 5849 5849 5849 5849 5849 5849 5849 5848 5848 5848 5848 5848 5848 5848 5848 5848 5848 5848 5848 5848 5848 5849 5849 5849 5849 5849 5849 5850 5850 5850 5850 5850 5850 5850 5851 5851 5851 5851 5851 5851 5851 5851 5851 5851 5851 5851 5851 5851 5850 5850 5850 5851 5851 5851 5851 5852 5852 5852 5853 5853 5853 5853 5853 5853 5853 5853 5854 5854 5854 5854 5854 5854 5854 5854 5854 5854 5854 5854 5854 5854 5854 5854 5854 5855 5855 5855 5856 5856 5856 5856 5856 5856 5856 5856 5856 5856 5856 5857 5857 5857 5858 5858
5848 5848 5848 5848 5848 5847 5847 5847 5847 5847 5847 5847 5847 5847 5847 5847 5847 5847 5847 5847 5847 5847 5847 5847 5847 5847 5848 5848 5848 5848 5848 5848 5848 5849 5849 5849 5849 5849 5849 5849 5849 5849 5849 5849 5849 5849 5849 5849 5849 5849 5849 5849 5849 5849 5849 5849 5850 5850 5850 5851 5851 5851 5851 5851 5852 5852 5852 5852 5852 5852 5852 5852 5852 5852 5853 5853 5853 5852 5852 5852 5852 5852 5852 5852 5853 5853 5853 5854 5854 5854 5855 5855 5855 5855 5855 5855 5855 5855 5856 5856 5856 5856 5857
5846 5846 5846 5846 5846 5846 5846 5846 5846 5846 5846 5846 5846 5846 5846 5846 5846 5846 5846 5846 5846 5846 5846 5846 5846 5846 5846 5846 5846 5846 5847 5847 5847 5847 5847 5847 5847 5847 5847 5847 5847 5847 5847 5847 5847 5847 5847 5847 5847 5847 5847 5847 5847 5847 5847 5847 5848 5848 5848 5849 5849 5849 5850 5850 5850 5850 5850 5850 5850 5851 5851 5851 5851 5851 5851 5851 5851 5851 5851 5851 5851 5851 5851 5851 5851 5851 5851 5852 5852 5852 5853 5853 5853 5853 5854 5854 5854 5854 5854 5854 5855 5855 5856
5845 5845 5845 5845 5845 5845 5845 5845 5845 5845 5845 5844 5844 5844 5844 5844 5844 5844 5844 5844 5844 5844 5845 5845 5845 5845 5845 5845 5845 5845 5845 5845 5846 5846 5846 5846 5846 5846 5846 5846 5846 5846 5845 5845 5845 5846 5846 5845 5845 5845 5845 5845 5845 5845 5845 5846 5846 5846 5846 5846 5847 5847 5847 5848 5848 5848 5848 5848 5849 5849 5849 5849 5849 5849 5849 5849 5849 5849 5849 5849 5849 5849 5849 5849 5849 5849 5849 5850 5850 5851 5851 5851 5851 5852 5852 5852 5852 5852 5853 5853 5853 5854 5854
5844 5844 5844 5844 5844 5844 5844 5844 5843 5843 5843 5843 5843 5843 5843 5843 5843 5843 5843 5843 5843 5843 5843 5843 5843 5843 5843 5843 5843 5844 5844 5844 5844 5844 5844 5844 5844 5844 5844 5844 5844 5844 5843 5843 5844 5844 5844 5844 5843 5843 5843 5843 5843 5843 5843 5844 5844 5844 5844 5845 5845 5845 5845 5846 5846 5846 5846 5846 5846 5847 5847 5847 5847 5847 5847 5847 5847 5847 5847 5847 5847 5847 5847 5847 5847 5847 5847 5848 5848 5848 5849 5849 5850 5850 5850 5850 5851 5851 5851 5851 5851 5852 5852
5843 5843 5843 5843 5843 5842 5842 5842 5842 5842 5842 5842 5841 5841 5841 5841 5841 5841 5841 5841 5841 5841 5842 5842 5842 5842 5842 5842 5842 5842 5842 5842 5842 5842 5842 5842 5842 5842 5842 5842 5842 5842 5841 5841 5842 5842 5842 5842 5842 5841 5841 5841 5841 5841 5841 5842 5842 5842 5842 5842 5843 5843 5843 5843 5844 5844 5844 5845 5845 5845 5845 5845 5845 5845 5845 5845 5845 5845 5845 5846 5845 5845 5845 5845 5845 5845 5845 5846 5846 5846 5846 5847 5847 5848 5848 5848 5849 5849 5849 5849 5850 5850 5851
5841 5841 5841 5841 5841 5841 5841 5841 5841 5841 5841 5841 5840 5840 5840 5840 5840 5840 5840 5840 5840 5840 5840 5840 5840 5840 5840 5840 5840 5841 5841 5841 5841 5841 5841 5841 5841 5840 5840 5840 5840 5840 5840 5840 5840 5840 5840 5840 5840 5840 5840 5840 5840 5840 5840 5840 5840 5840 5840 5840 5841 5841 5841 5841 5841 5842 5842 5842 5842 5843 5843 5843 5843 5843 5842 5843 5843 5843 5843 5843 5843 5843 5843 5843 5843 5843 5843 5843 5844 5844 5844 5845 5845 5846 5846 5846 5846 5847 5847 5847 5848 5848 5848
5840 5840 5840 5840 5840 5840 5840 5840 5840 5840 5839 5839 5839 5839 5839 5839 5839 5839 5839 5839 5839 5839 5839 5839 5839 5839 5839 5839 5839 5839 5839 5839 5839 5839 5839 5839 5839 5838 5838 5838 5838 5838 5838 5838 5838 5838 5838 5838 5838 5838 5838 5837 5837 5837 5837 5838 5838 5838 5838 5838 5838 5838 5839 5839 5839 5839 5840 5840 5840 5841 5841 5841 5841 5841 5841 5841 5841 5841 5841 5841 5841 5841 5841 5841 5841 5841 5841 5841 5841 5842 5842 5842 5843 5843 5843 5844 5844 5845 5845 5845 5846 5846 5846
5839 5839 5839 5839 5839 5839 5839 5838 5838 5838 5838 5838 5838 5837 5837 5837 5837 5837 5837 5837 5837 5837 5837 5837 5837 5837 5837 5837 5837 5837 5837 5837 5837 5837 5837 5837 5836 5836 5836 5836 5836 5836 5836 5836 5836 5836 5836 5836 5836 5836 5836 5836 5836 5836 5836 5836 5836 5836 5836 5836 5836 5836 5836 5836 5837 5837 5837 5837 5838 5838 5838 5839 5839 5839 5838 5838 5838 5838 5838 5839 5839 5839 5839 5839 5839 5839 5839 5839 5840 5840 5840 5840 5840 5841 5841 5841 5842 5842 5842 5843 5843 5844 5844
5838 5838 5838 5837 5837 5837 5837 5837 5837 5837 5837 5836 5836 5836 5836 5836 5836 5836 5835 5835 5835 5835 5835 5835 5835 5835 5835 5835 5835 5835 5835 5835 5835 5835 5835 5835 5835 5834 5834 5834 5834 5834 5833 5833 5833 5833 5833 5833 5833 5833 5833 5833 5833 5833 5833 5833 5834 5834 5834 5834 5834 5834 5834 5834 5834 5835 5835 5835 5835 5836 5836 5836 5836 5836 5836 5836 5836 5836 5836 5836 5836 5836 5837 5837 5837 5837 5837 5837 5837 5837 5837 5837 5838 5838 5838 5839 5839 5840 5840 5841 5841 5841 5841
5836 5836 5836 5836 5836 5836 5836 5836 5836 5836 5836 5835 5835 5835 5835 5834 5834 5834 5834 5833 5833 5833 5833 5833 5833 5833 5833 5833 5833 5833 5833 5833 5833 5833 5833 5832 5832 5832 5832 5832 5831 5831 5831 5831 5831 5831 5831 5831 5831 5831 5831 5831 5831 5831 5831 5831 5831 5831 5831 5831 5832 5832 5832 5832 5832 5832 5832 5833 5833 5833 5833 5833 5834 5834 5834 5834 5834 5834 5834 5834 5834 5834 5834 5835 5835 5835 5835 5835 5835 5835 5835 5835 5836 5836 5836 5836 5837 5837 5837 5838 5838 5839 5839
5835 5835 5835 5835 5835 5835 5835 5834 5834 5834 5834 5834 5834 5833 5833 5833 5832 5832 5832 5832 5831 5831 5831 5831 5831 5831 5831 5831 5831 5831 5831 5831 5831 5831 5831 5831 5830 5830 5830 5830 5830 5829 5829 5829 5829 5829 5829 5829 5829 5829 5829 5829 5829 5829 5829 5829 5829 5829 5829 5829 5829 5830 5830 5830 5830 5830 5830 5830 5830 5831 5831 5831 5831 5831 5831 5832 5832 5832 5832 5832 5832 5832 5832 5832 5832 5832 5833 5833 5833 5833 5833 5833 5833 5833 5833 5834 5834 5835 5835 5835 5836 5836 5836
5833 5833 5833 5833 5833 5833 5833 5833 5833 5833 5833 5832 5832 5832 5831 5831 5831 5831 5830 5830 5830 5830 5830 5830 5830 5829 5829 5829 5829 5829 5829 5829 5829 5829 5829 5828 5828 5828 5828 5828 5827 5827 5827 5827 5827 5827 5827 5826 5826 5826 5826 5826 5826 5826 5827 5827 5827 5827 5827 5827 5827 5827 5827 5827 5827 5827 5827 5827 5828 5828 5828 5829 5829 5829 5829 5829 5829 5830 5830 5830 5830 5830 5830 5830 5830 5830 5830 5831 5831 5831 5831 5831 5831 5831 5831 5831 5832 5832 5832 5833 5833 5834 5834
5832 5831 5831 5831 5831 5831 5831 5831 5831 5831 5831 5831 5831 5831 5830 5830 5829 5829 5829 5828 5828 5828 5827 5827 5827 5827 5827 5827 5827 5827 5827 5827 5827 5827 5826 5826 5826 5826 5826 5826 5826 5825 5825 5825 5825 5825 5825 5824 5824 5824 5824 5824 5824 5824 5824 5825 5825 5825 5825 5825 5825 5825 5825 5825 5825 5825 5825 5825 5825 5826 5826 5826 5826 5826 5827 5827 5827 5827 5827 5827 5827 5828 5828 5828 5828 5828 5828 5828 5828 5828 5829 5829 5829 5829 5829 5829 5829 5830 5830 5830 5831 5831 5831
5830 5830 5830 5830 5830 5830 5830 5830 5830 5830 5830 5830 5829 5829 5829 5828 5828 5828 5827 5827 5826 5826 5826 5826 5826 5826 5826 5826 5826 5826 5825 5825 5825 5825 5825 5825 5824 5824 5824 5824 5823 5823 5823 5823 5823 5822 5822 5822 5822 5822 5822 5822 5822 5822 5822 5822 5822 5822 5823 5823 5823 5823 5823 5823 5823 5823 5823 5823 5823 5823 5823 5824 5824 5824 5824 5824 5825 5825 5825 5825 5825 5825 5825 5826 5826 5826 5826 5826 5826 5826 5826 5826 5826 5827 5827 5827 5827 5827 5827 5827 5828 5828 5829
5828 5828 5828 5828 5828 5828 5828 5828 5828 5828 5828 5828 5828 5827 5827 5827 5826 5826 5826 5825 5825 5824 5824 5824 5823 5823 5824 5823 5824 5824 5823 5823 5823 5823 5823 5823 5822 5822 5822 5822 5821 5821 5821 5821 5821 5821 5820 5820 5820 5820 5820 5820 5820 5820 5820 5820 5820 5820 5821 5821 5821 5821 5821 5821 5821 5821 5821 5821 5821 5821 5821 5821 5821 5821 5822 5822 5822 5822 5822 5822 5823 5823 5823 5823 5823 5823 5823 5823 5823 5824 5824 5824 5824 5824 5824 5825 5825 5825 5825 5825 5825 5826 5826
5826 5826 5826 5826 5826 5826 5826 5826 5826 5826 5826 5826 5826 5826 5826 5825 5825 5825 5824 5824 5823 5823 5822 5822 5821 5821 5821 5821 5821 5821 5821 5821 5821 5821 5821 5821 5821 5820 5820 5820 5820 5820 5819 5819 5819 5818 5818 5818 5818 5818 5818 5818 5818 5818 5818 5818 5818 5818 5818 5818 5818 5819 5819 5819 5819 5819 5819 5819 5819 5819 5819 5819 5819 5819 5819 5820 5820 5820 5820 5820 5820 5821 5821 5821 5821 5821 5821 5821 5821 5821 5821 5821 5821 5821 5821 5822 5822 5822 5822 5822 5822 5823 5823
5825 5825 5825 5825 5825 5825 5825 5825 5825 5825 5825 5824 5824 5824 5824 5824 5823 5823 5823 5822 5822 5821 5821 5820 5820 5820 5819 5819 5819 5819 5820 5820 5820 5819 5819 5819 5819 5818 5818 5818 5818 5818 5817 5817 5817 5816 5816 5816 5816 5816 5816 5816 5816 5816 5816 5816 5816 5816 5816 5816 5816 5816 5816 5816 5816 5816 5817 5817 5817 5817 5817 5817 5817 5817 5817 5817 5817 5817 5818 5818 5818 5818 5818 5818 5818 5818 5818 5818 5818 5818 5818 5819 5819 5819 5819 5819 5819 5820 5820 5820 5820 5820 5820
5823 5823 5823 5823 5823 5823 5823 5823 5823 5823 5823 5822 5822 5822 5822 5822 5822 5821 5821 5821 5820 5820 5820 5819 5818 5818 5817 5817 5817 5817 5817 5817 5817 5817 5817 5817 5816 5816 5816 5816 5816 5816 5816 5815 5815 5815 5814 5814 5814 5814 5813 5813 5813 5813 5813 5813 5813 5813 5814 5814 5814 5814 5814 5814 5814 5814 5814 5814 5815 5815 5815 5815 5815 5815 5815 5815 5815 5815 5815 5815 5815 5815 5815 5816 5816 5816 5816 5816 5816 5816 5816 5816 5816 5816 5816 5816 5816 5817 5817 5817 5817 5817 5817
5821 5821 5821 5821 5821 5821 5821 5821 5821 5821 5821 5821 5821 5821 5821 5820 5820 5820 5820 5819 5819 5818 5818 5817 5817 5816 5816 5815 5815 5815 5815 5815 5815 5815 5815 5815 5815 5814 5814 5814 5814 5814 5814 5813 5813 5813 5812 5812 5812 5812 5811 5811 5811 5811 5811 5811 5811 5811 5811 5811 5812 5812 5812 5812 5812 5812 5812 5812 5812 5812 5812 5812 5813 5813 5813 5812 5812 5812 5812 5813 5813 5813 5812 5813 5813 5813 5813 5813 5813 5813 5813 5814 5814 5814 5814 5814 5814 5814 5815 5815 5815 5815 5815
5819 5819 5819 5819 5819 5819 5819 5819 5819 5819 5819 5819 5819 5819 5819 5818 5818 5818 5818 5817 5817 5817 5816 5816 5816 5815 5814 5814 5813 5813 5813 5813 5813 5813 5813 5812 5812 5812 5812 5811 5811 5811 5811 5811 5811 5811 5811 5810 5810 5810 5810 5809 5809 5809 5809 5809 5808 5809 5809 5809 5809 5810 5810 5810 5810 5810 5810 5810 5810 5810 5810 5810 5810 5810 5810 5810 5810 5810 5810 5810 5810 5810 5810 5810 5811 5811 5811 5811 5811 5811 5811 5811 5811 5811 5811 5811 5811 5811 5812 5812 5812 5812 5811
5817 5817 5817 5817 5817 5817 5817 5817 5817 5816 5816 5816 5816 5816 5816 5816 5816 5816 5816 5816 5816 5815 5815 5814 5814 5813 5813 5812 5811 5811 5811 5810 5810 5810 5810 5810 5810 5810 5810 5809 5809 5809 5809 5809 5809 5809 5808 5808 5808 5808 5808 5807 5807 5807 5807 5806 5806 5806 5806 5806 5807 5807 5807 5807 5807 5807 5807 5807 5807 5807 5807 5807 5807 5808 5808 5808 5808 5807 5807 5807 5807 5807 5807 5807 5808 5808 5808 5808 5808 5808 5808 5808 5808 5809 5809 5809 5809 5809 5809 5809 5809 5809 5808
5816 5815 5815 5815 5815 5815 5815 5815 5815 5815 5815 5815 5815 5814 5814 5814 5814 5814 5814 5814 5814 5813 5813 5812 5812 5812 5811 5811 5810 5809 5809 5808 5808 5808 5808 5808 5808 5807 5807 5807 5806 5806 5806 5806 5806 5806 5806 5806 5806 5806 5806 5806 5805 5805 5805 5804 5804 5804 5804 5804 5804 5805 5805 5805 5805 5805 5805 5805 5805 5805 5805 5805 5805 5805 5805 5805 5805 5805 5805 5805 5804 5804 5805 5805 5805 5805 5805 5806 5806 5806 5806 5806 5806 5806 5806 5806 5806 5806 5806 5806 5806 5805 5805
5814 5813 5813 5813 5813 5813 5813 5812 5812 5812 5812 5812 5812 5812 5812 5812 5812 5812 5812 5812 5811 5811 5811 5811 5811 5810 5810 5810 5809 5808 5807 5806 5806 5806 5806 5805 5805 5804 5804 5804 5804 5804 5804 5804 5803 5803 5803 5803 5804 5804 5803 5803 5803 5803 5803 5802 5802 5802 5802 5802 5802 5802 5802 5802 5803 5802 5802 5802 5802 5802 5802 5802 5802 5802 5802 5802 5802 5802 5802 5802 5802 5802 5802 5802 5802 5802 5803 5803 5803 5803 5803 5803 5803 5803 5803 5803 5803 5803 5803 5802 5802 5801 5801
5811 5811 5811 5811 5811 5811 5811 5811 5810 5810 5810 5810 5810 5810 5810 5810 5810 5810 5810 5810 5809 5809 5809 5809 5809 5808 5808 5808 5807 5807 5806 5805 5804 5804 5803 5803 5802 5802 5801 5801 5801 5800 5800 5801 5801 5801 5801 5801 5801 5801 5801 5801 5801 5801 5801 5801 5800 5800 5800 5800 5800 5800 5800 5800 5800 5800 5800 5800 5800 5800 5799 5799 5799 5799 5799 5799 5799 5799 5800 5799 5799 5799 5799 5799 5799 5800 5800 5800 5800 5800 5800 5800 5800 5800 5800 5800 5800 5800 5799 5799 5798 5798 5797
5810 5810 5809 5809 5809 5809 5809 5808 5808 5808 5808 5808 5808 5808 5807 5807 5807 5807 5807 5807 5807 5807 5807 5807 5807 5807 5806 5806 5806 5805 5805 5804 5803 5803 5802 5801 5801 5800 5800 5799 5798 5797 5797 5797 5797 5797 5798 5798 5798 5798 5798 5798 5798 5798 5798 5798 5798 5798 5798 5797 5797 5797 5797 5797 5797 5797 5797 5797 5797 5797 5797 5796 5796 5796 5796 5796 5796 5796 5796 5796 5796 5796 5796 5796 5796 5796 5796 5797 5797 5797 5797 5796 5796 5796 5796 5796 5796 5796 5795 5795 5794 5794 5793
5808 5807 5807 5807 5807 5807 5806 5806 5806 5806 5806 5806 5806 5805 5805 5805 5805 5805 5805 5805 5805 5805 5805 5805 5805 5805 5805 5805 5804 5804 5803 5802 5802 5801 5801 5800 5800 5799 5798 5797 5796 5795 5794 5793 5793 5793 5794 5794 5794 5795 5795 5795 5795 5796 5796 5796 5796 5796 5796 5795 5795 5795 5795 5795 5795 5795 5795 5795 5795 5795 5794 5794 5794 5793 5793 5793 5793 5793 5793 5793 5793 5793 5793 5793 5793 5793 5793 5793 5793 5793 5793 5793 5793 5793 5792 5792 5791 5791 5791 5790 5790 5789 5789
5806 5806 5805 5805 5805 5805 5804 5804 5804 5803 5803 5803 5803 5803 5803 5803 5803 5803 5803 5802 5802 5802 5802 5802 5802 5803 5803 5802 5802 5802 5801 5801 5800 5800 5799 5799 5798 5798 5797 5796 5795 5794 5793 5792 5791 5790 5790 5790 5790 5790 5791 5792 5792 5792 5793 5793 5793 5793 5793 5793 5793 5792 5792 5792 5792 5792 5792 5792 5792 5792 5791 5791 5791 5791 5791 5790 5790 5790 5790 5790 5790 5790 5790 5790 5790 5790 5790 5790 5790 5790 5790 5789 5789 5789 5788 5788 5788 5787 5786 5786 5785 5784 5784
5804 5803 5803 5803 5803 5802 5802 5802 5801 5801 5801 5801 5801 5801 5801 5800 5800 5800 5800 5800 5800 5800 5800 5800 5800 5800 5800 5800 5800 5800 5800 5799 5798 5798 5798 5797 5797 5796 5796 5795 5794 5793 5792 5791 5790 5788 5787 5786 5786 5787 5787 5788 5788 5789 5789 5790 5790 5790 5790 5790 5790 5790 5790 5790 5790 5789 5789 5789 5789 5789 5789 5789 5788 5788 5788 5788 5787 5787 5787 5787 5787 5787 5787 5787 5787 5787 5787 5787 5787 5786 5786 5786 5785 5785 5784 5784 5783 5782 5782 5781 5780 5779 5778
5801 5801 5801 5801 5801 5800 5800 5800 5799 5799 5799 5798 5798 5798 5798 5798 5798 5798 5798 5798 5798 5798 5797 5797 5797 5797 5797 5797 5797 5797 5797 5797 5796 5796 5796 5795 5795 5795 5794 5794 5793 5792 5791 5790 5789 5787 5786 5784 5784 5784 5784 5785 5785 5785 5786 5786 5786 5787 5787 5787 5787 5787 5787 5787 5787 5786 5786 5786 5786 5786 5786 5786 5786 5786 5785 5785 5785 5785 5785 5785 5785 5784 5784 5784 5784 5784 5784 5784 5783 5783 5783 5782 5781 5781 5780 5779 5778 5778 5777 5776 5776 5774 5773
5799 5799 5799 5799 5798 5798 5798 5797 5797 5796 5796 5796 5796 5796 5795 5795 5795 5795 5795 5795 5795 5795 5795 5795 5795 5795 5795 5795 5795 5794 5794 5794 5794 5794 5793 5793 5793 5793 5792 5792 5791 5791 5790 5789 5788 5787 5785 5783 5782 5781 5781 5781 5781 5782 5782 5783 5783 5784 5784 5784 5784 5784 5784 5784 5784 5784 5784 5783 5783 5783 5783 5783 5783 5783 5783 5783 5782 5782 5782 5782 5782 5781 5781 5781 5781 5781 5781 5780 5780 5780 5779 5778 5777 5776 5776 5775 5774 5773 5773 5772 5771 5770 5769
5797 5797 5797 5796 5796 5796 5796 5795 5795 5794 5794 5793 5793 5793 5793 5793 5793 5793 5793 5793 5793 5793 5793 5792 5792 5792 5792 5792 5792 5791 5791 5791 5791 5791 5791 5791 5791 5790 5790 5790 5789 5789 5788 5788 5787 5786 5785 5783 5781 5780 5779 5778 5778 5779 5779 5779 5780 5781 5781 5781 5781 5781 5781 5781 5781 5781 5781 5781 5781 5781 5780 5780 5780 5780 5780 5780 5780 5780 5780 5779 5779 5779 5778 5778 5778 5778 5777 5777 5776 5776 5775 5774 5774 5773 5771 5771 5770 5769 5768 5767 5766 5765 5764
5795 5794 5794 5794 5794 5793 5793 5792 5792 5792 5791 5791 5791 5790 5790 5790 5790 5790 5790 5790 5790 5790 5790 5790 5790 5790 5789 5789 5789 5789 5789 5788 5788 5788 5788 5788 5788 5788 5787 5787 5787 5787 5786 5786 5786 5785 5784 5783 5781 5779 5778 5776 5776 5775 5776 5776 5777 5778 5778 5778 5778 5779 5779 5779 5779 5779 5778 5778 5778 5778 5778 5778 5778 5778 5777 5777 5777 5777 5777 5777 5776 5776 5776 5775 5775 5775 5774 5774 5773 5772 5771 5771 5770 5769 5768 5767 5766 5765 5764 5763 5762 5761 5759
5792 5792 5792 5791 5791 5791 5791 5790 5790 5789 5789 5788 5788 5788 5788 5787 5787 5787 5787 5787 5787 5787 5787 5787 5787 5787 5787 5786 5786 5786 5786 5786 5786 5786 5786 5785 5785 5785 5785 5784 5784 5784 5784 5784 5783 5783 5782 5781 5780 5779 5777 5776 5774 5773 5772 5772 5773 5774 5775 5776 5776 5776 5776 5776 5776 5776 5776 5776 5776 5776 5775 5775 5775 5775 5775 5775 5775 5775 5775 5774 5774 5773 5773 5772 5772 5771 5771 5771 5770 5769 5768 5767 5766 5765 5764 5763 5762 5761 5760 5759 5758 5756 5755
5789 5789 5789 5789 5789 5788 5788 5787 5787 5786 5786 5786 5786 5785 5785 5785 5785 5785 5785 5785 5785 5785 5785 5785 5785 5785 5784 5784 5784 5784 5784 5783 5783 5783 5783 5782 5782 5782 5782 5781 5781 5781 5781 5781 5781 5781 5780 5780 5779 5778 5776 5775 5774 5772 5771 5770 5770 5770 5771 5772 5773 5773 5773 5774 5774 5773 5773 5773 5773 5773 5773 5773 5773 5772 5772 5772 5772 5772 5772 5771 5771 5771 5771 5770 5769 5768 5768 5767 5766 5766 5765 5763 5762 5761 5760 5759 5758 5758 5757 5756 5754 5753 5751